TimeEDT,TemperatureF,Dew PointF,Humidity,Sea Level PressureIn,VisibilityMPH,Wind Direction,Wind SpeedMPH,Gust SpeedMPH,PrecipitationIn,Events,Conditions,WindDirDegrees,DateUTC
12:15 AM,78.8,75.2,89,29.95,7.0,South,9.2,-,N/A,,Mostly Cloudy,190,2013-07-01 04:15:00
12:51 AM,79.0,75.9,90,29.95,7.0,South,12.7,18.4,N/A,,Mostly Cloudy,190,2013-07-01 04:51:00
1:01 AM,78.8,73.4,83,29.95,8.0,SSW,15.0,23.0,N/A,,Scattered Clouds,200,2013-07-01 05:01:00
1:51 AM,78.1,73.0,84,29.95,9.0,South,12.7,20.7,N/A,,Clear,190,2013-07-01 05:51:00
2:51 AM,79.0,73.9,84,29.94,8.0,South,12.7,-,0.00,,Partly Cloudy,180,2013-07-01 06:51:00
3:51 AM,79.0,73.9,84,29.94,10.0,South,13.8,-,0.00,,Clear,190,2013-07-01 07:51:00
4:51 AM,78.1,73.0,84,29.95,9.0,South,16.1,-,N/A,,Mostly Cloudy,180,2013-07-01 08:51:00
5:09 AM,78.8,73.4,83,29.95,7.0,South,12.7,-,N/A,,Scattered Clouds,180,2013-07-01 09:09:00
5:20 AM,77.0,73.4,89,29.96,2.5,SSW,16.1,27.6,0.02,Rain,Heavy Rain,200,2013-07-01 09:20:00
5:32 AM,75.2,73.4,94,29.97,9.0,South,12.7,20.7,0.05,,Overcast,190,2013-07-01 09:32:00
5:51 AM,77.0,72.0,84,29.97,9.0,South,11.5,-,0.05,,Mostly Cloudy,190,2013-07-01 09:51:00
6:28 AM,73.4,71.6,94,29.99,2.0,SSW,16.1,27.6,0.06,Rain,Rain,210,2013-07-01 10:28:00
6:39 AM,75.2,73.4,94,30.00,4.0,SSW,23.0,29.9,0.07,Rain,Light Rain,210,2013-07-01 10:39:00
6:51 AM,75.0,72.0,90,30.00,3.0,SSW,18.4,27.6,0.08,Rain,Light Rain,210,2013-07-01 10:51:00
7:11 AM,75.2,73.4,94,30.00,2.0,SSW,16.1,26.5,0.04,Rain,Rain,210,2013-07-01 11:11:00
7:27 AM,75.2,73.4,94,30.01,3.0,SSW,18.4,27.6,0.06,Rain,Light Rain,200,2013-07-01 11:27:00
7:51 AM,75.0,72.0,90,30.01,7.0,SSW,16.1,24.2,0.08,Rain,Light Rain,210,2013-07-01 11:51:00
8:51 AM,78.1,73.0,84,30.03,4.0,SW,21.9,35.7,0.00,Rain,Light Rain,220,2013-07-01 12:51:00
8:58 AM,75.2,73.4,94,30.02,0.8,SW,18.4,35.7,0.02,Rain,Heavy Rain,220,2013-07-01 12:58:00
9:02 AM,75.2,71.6,89,30.03,0.8,SW,18.4,33.4,0.10,Rain,Heavy Rain,220,2013-07-01 13:02:00
9:09 AM,75.2,71.6,89,30.03,1.5,SSW,18.4,25.3,0.13,Rain,Rain,210,2013-07-01 13:09:00
9:17 AM,75.2,71.6,89,30.04,2.0,SSW,19.6,26.5,0.16,Rain,Rain,200,2013-07-01 13:17:00
9:51 AM,75.0,73.0,94,30.03,2.5,SSW,12.7,-,0.25,Rain,Rain,200,2013-07-01 13:51:00
10:00 AM,75.2,73.4,94,30.02,4.0,SSW,13.8,-,0.01,Rain,Light Rain,200,2013-07-01 14:00:00
10:51 AM,75.0,73.0,94,30.03,5.0,SSW,11.5,20.7,0.05,Rain,Light Rain,210,2013-07-01 14:51:00
11:51 AM,75.9,73.9,94,30.04,5.0,SSW,13.8,20.7,0.01,Rain,Light Rain,210,2013-07-01 15:51:00
12:51 PM,79.0,73.0,82,30.04,7.0,South,10.4,-,0.00,,Clear,190,2013-07-01 16:51:00
1:51 PM,82.9,73.9,74,30.04,8.0,South,11.5,-,N/A,,Clear,180,2013-07-01 17:51:00
2:51 PM,78.1,72.0,81,30.03,7.0,SSW,17.3,25.3,0.00,Rain,Light Rain,200,2013-07-01 18:51:00
3:51 PM,77.0,73.0,88,30.05,6.0,SSW,18.4,29.9,0.01,Rain,Light Rain,200,2013-07-01 19:51:00
4:51 PM,75.9,73.9,94,30.04,6.0,SSW,13.8,26.5,0.03,Rain,Light Rain,210,2013-07-01 20:51:00
5:51 PM,77.0,75.0,94,30.05,6.0,SSW,11.5,18.4,0.01,,Partly Cloudy,200,2013-07-01 21:51:00
6:33 PM,78.8,73.4,83,30.05,7.0,South,11.5,-,N/A,,Mostly Cloudy,190,2013-07-01 22:33:00
6:40 PM,78.8,73.4,83,30.06,8.0,South,11.5,-,N/A,,Mostly Cloudy,190,2013-07-01 22:40:00
6:51 PM,78.1,73.9,87,30.06,8.0,SSW,10.4,-,N/A,,Mostly Cloudy,200,2013-07-01 22:51:00
7:06 PM,78.8,73.4,83,30.06,7.0,SSW,11.5,-,N/A,,Scattered Clouds,200,2013-07-01 23:06:00
7:51 PM,78.1,73.9,87,30.06,7.0,SSW,11.5,-,N/A,,Clear,200,2013-07-01 23:51:00
8:51 PM,78.1,73.0,84,30.08,10.0,SSW,13.8,19.6,N/A,,Clear,210,2013-07-02 00:51:00
9:51 PM,78.1,73.0,84,30.09,10.0,SSW,16.1,23.0,N/A,,Scattered Clouds,200,2013-07-02 01:51:00
10:51 PM,78.1,73.9,87,30.10,10.0,SSW,15.0,24.2,N/A,,Clear,210,2013-07-02 02:51:00
11:51 PM,77.0,73.0,88,30.11,8.0,SSW,10.4,-,0.02,,Scattered Clouds,200,2013-07-02 03:51:00